Flag for Thailand Weather past 2 weeks in Phuket, Thailand

Now
86 °F

Broken clouds.


Feels Like: 91 °F
Forecast: 80 / 90 °F
Wind: 10 mph from East

Location: Phuket Airport

Current Time: Mar 27, 2015 at 10:56:35 AM

Latest Report: Mar 27, 2015 at 10:00 AM


Visibility: N/A

Pressure: 29.95 "Hg

Humidity: 59%

Dew point: 70 °F

Location of PhuketLocation

Historic Weather in Phuket — Graph

°F

Phuket temperature yesterday

Maximum temperature yesterday: 95 °F (at 4:00 PM)
Minimum temperature yesterday: 79 °F (at 6:30 AM)
Average temperature yesterday: 87 °F

Past Weeks' High & Low Weather Summary

 TemperatureHumidityPressure
High95 °F (Mar 24, 3:00 PM)94% (Mar 15, 6:00 AM)30.01 "Hg (Mar 15, 6:00 AM)
Low70 °F (Mar 15, 6:00 AM)28% (Mar 12, 3:30 PM)29.77 "Hg (Mar 18, 3:30 PM)
Average84 °F66%29.88 "Hg
* Reported Mar 12 9:00 AM — Mar 27 9:30 AM, Phuket, Weather by CustomWeather, © 2015

Note: Actual official high and low records may vary slightly from our data, if they occured in-between our weather recording intervals... More about our weather records

Advertising

Phuket weather history for previous 24 hours

 ConditionsComfort  
Time TempWeatherWind HumidityBarometerVisibility
9:30 AM
Fri, Mar 27
86 °FBroken clouds.13 mph59%29.95 "HgN/A
9:00 AM86 °FBroken clouds.14 mph59%29.95 "HgN/A
8:30 AM84 °FBroken clouds.9 mph62%29.95 "HgN/A
8:00 AM82 °FBroken clouds.9 mph66%29.92 "HgN/A
7:30 AM81 °FBroken clouds.5 mph74%29.92 "HgN/A
7:00 AM81 °FBroken clouds.3 mph70%29.92 "HgN/A
6:30 AM81 °FPartly sunny.6 mph70%29.89 "HgN/A
6:00 AM82 °FPassing clouds.7 mph66%29.89 "HgN/A
5:30 AM82 °FPassing clouds.9 mph66%29.86 "HgN/A
5:00 AM82 °FPassing clouds.12 mph66%29.86 "HgN/A
4:30 AM82 °FPassing clouds.10 mph66%29.89 "HgN/A
4:00 AM82 °FPassing clouds.9 mph66%29.89 "HgN/A
3:30 AM81 °FPassing clouds.6 mph70%29.89 "HgN/A
3:00 AM81 °FPassing clouds.3 mph70%29.89 "HgN/A
2:30 AM79 °FPassing clouds.No wind74%29.89 "HgN/A
2:00 AM81 °FPassing clouds.No wind66%29.89 "HgN/A
1:30 AM81 °FPassing clouds.1 mph66%29.89 "HgN/A
1:00 AM82 °FPassing clouds.3 mph62%29.92 "HgN/A
12:30 AM82 °FPassing clouds.5 mph62%29.92 "HgN/A
12:00 AM84 °FPassing clouds.9 mph58%29.95 "HgN/A
11:30 PM
Thu, Mar 26
84 °FPassing clouds.12 mph55%29.95 "HgN/A
11:00 PM86 °FPartly cloudy.13 mph52%29.95 "HgN/A
10:30 PM86 °FPartly cloudy.12 mph52%29.95 "HgN/A
9:30 PM88 °FPartly cloudy.13 mph46%29.95 "HgN/A
9:00 PM88 °FPartly cloudy.9 mph46%29.92 "HgN/A
8:30 PM84 °FPartly cloudy.2 mph70%29.92 "HgN/A
8:00 PM84 °FPartly cloudy.6 mph70%29.89 "HgN/A
7:30 PM86 °FPartly cloudy.8 mph66%29.89 "HgN/A
7:00 PM86 °FPartly cloudy.10 mph66%29.86 "HgN/A
6:30 PM88 °FBroken clouds.13 mph62%29.86 "HgN/A
6:00 PM91 °FBroken clouds.6 mph44%29.83 "HgN/A
5:30 PM91 °FBroken clouds.9 mph44%29.83 "HgN/A
5:00 PM93 °FBroken clouds.12 mph41%29.80 "HgN/A
4:30 PM95 °FBroken clouds.12 mph36%29.80 "HgN/A
4:00 PM95 °FBroken clouds.12 mph39%29.83 "HgN/A
3:30 PM93 °FBroken clouds.9 mph39%29.83 "HgN/A
3:00 PM93 °FBroken clouds.12 mph44%29.83 "HgN/A
2:30 PM93 °FBroken clouds.9 mph44%29.83 "HgN/A
2:00 PM93 °FBroken clouds.13 mph44%29.86 "HgN/A
1:30 PM91 °FBroken clouds.12 mph46%29.86 "HgN/A
1:00 PM91 °FPartly sunny.10 mph46%29.89 "HgN/A
12:30 PM91 °FPartly sunny.14 mph46%29.89 "HgN/A
12:00 PM91 °FPartly sunny.12 mph49%29.92 "HgN/A
11:30 AM88 °FPartly sunny.10 mph55%29.92 "HgN/A
11:00 AM88 °FPartly sunny.13 mph55%29.95 "HgN/A
10:30 AM88 °FPartly sunny.12 mph55%29.95 "HgN/A
10:00 AM88 °FPartly sunny.9 mph55%29.95 "HgN/A
Weather by CustomWeather, © 2015

See weather overviewHow to use our weather pages